Tracking 19817 objects as of 19-Aug-2019
HD Live streaming from Space Station
objects crossing your sky now

COSMOS 2251 DEB

Track COSMOS 2251 DEB now!
10-day predictions


NORAD ID: 33842
Int'l Code: 1993-036CK
Perigee: 737.0 km
Apogee: 807.6 km
Inclination: 74.0 °
Period: 100.1 minutes
Semi major axis: 7143 km
RCS: 0.0581 m2 (small)
Launch date: June 16, 1993
Source: Commonwealth of Independent States (former USSR) (CIS)
Launch site: PLESETSK MISSILE AND SPACE COMPLEX (PKMTR)

Note: This is SATELLITE DEBRIS
aabbcc
Your satellite tracking list
Your tracking list is empty




NASA's NSSDC Master Catalog

Two Line Element Set (TLE):
1 33842U 93036CK  19230.89212401 +.00000101 +00000-0 +41350-4 0  9992
2 33842 074.0361 159.9224 0049431 113.7226 246.9125 14.37990239551320
Source of the keplerian elements: AFSPC